DW3560 Weather Reports


time (UTC)temp
F
wind
direction
speed
knots
gust
knots
rain 1hr
in
rain 24hr
in
rain mn
in
humidity
%
barometer
mb
20260902102002 56 189 0.0 0.9 0.00 0.00 0.00 88 1014.4
20260902101503 56 197 0.0 1.7 0.00 0.00 0.00 88 1014.4
20260902101003 56 204 0.0 1.7 0.00 0.00 0.00 88 1014.4
20260902100502 56 211 0.0 0.9 0.00 0.00 0.00 89 1014.4
20260902100024 56 211 0.0 0.9 0.00 0.00 0.00 89 1014.4
20260902095503 56 211 0.0 0.9 0.00 0.00 0.00 89 1014.4
20260902095023 57 0 0.0 0.0 0.00 0.00 0.00 89 1014.4
20260902094502 57 0 0.0 0.0 0.00 0.00 0.00 89 1014.4
20260902094023 57 0 0.0 0.0 0.00 0.00 0.00 89 1014.4
20260902093502 57 0 0.0 0.0 0.00 0.00 0.00 89 1014.4
20260902093002 57 0 0.0 0.0 0.00 0.00 0.00 89 1014.4
20260902092503 57 0 0.0 0.0 0.00 0.00 0.00 89 1014.4
20260902092023 57 0 0.0 0.0 0.00 0.00 0.00 89 1014.4
20260902091503 57 0 0.0 0.0 0.00 0.00 0.00 89 1014.4
20260902091003 57 213 0.0 0.9 0.00 0.00 0.00 89 1014.4
20260902090503 57 213 0.0 0.9 0.00 0.00 0.00 89 1014.4
20260902090003 57 213 0.0 0.9 0.00 0.00 0.00 89 1014.4
20260902085503 57 213 0.0 0.9 0.00 0.00 0.00 89 1014.4
20260902085002 57 0 0.0 0.0 0.00 0.00 0.00 89 1014.4
20260902084503 57 0 0.0 0.0 0.00 0.00 0.00 89 1014.4
20260902084003 57 0 0.0 0.0 0.00 0.00 0.00 89 1014.4
20260902083523 57 213 0.0 0.9 0.00 0.00 0.00 89 1014.4
20260902083003 57 213 0.0 0.9 0.00 0.00 0.00 89 1014.4
20260902082502 57 0 0.0 0.0 0.00 0.00 0.00 89 1014.4
20260902082002 57 212 0.0 0.9 0.00 0.00 0.00 89 1014.4
20260902081503 57 205 0.0 1.7 0.00 0.00 0.00 90 1014.4
20260902081002 57 189 0.0 1.7 0.00 0.00 0.00 90 1014.4
20260902080502 57 170 0.0 1.7 0.00 0.00 0.00 90 1014.4
20260902080024 57 156 0.0 0.9 0.00 0.00 0.00 90 1014.4
20260902075503 57 156 0.0 1.7 0.00 0.00 0.00 89 1014.4
20260902075003 57 159 0.0 2.6 0.00 0.00 0.00 89 1014.4
20260902074524 57 177 0.0 2.6 0.00 0.00 0.00 89 1014.4
20260902074024 57 194 0.0 1.7 0.00 0.00 0.00 89 1014.4
20260902073503 57 195 0.0 1.7 0.00 0.00 0.00 89 1014.4
20260902073003 57 195 0.9 2.6 0.00 0.00 0.00 89 1014.4
20260902072502 57 197 0.9 2.6 0.00 0.00 0.00 89 1014.4
20260902072003 57 197 0.0 1.7 0.00 0.00 0.00 89 1014.4
20260902071502 57 198 0.0 0.9 0.00 0.00 0.00 89 1014.4
20260902071003 57 198 0.0 0.9 0.00 0.00 0.00 88 1014.4
20260902070524 57 198 0.0 0.9 0.00 0.00 0.00 88 1014.4
20260902070007 58 0 0.0 0.0 0.00 0.00 0.00 88 1014.4
20260902065502 58 0 0.0 0.0 0.00 0.00 0.00 88 1014.4
20260902065002 58 0 0.0 0.0 0.00 0.00 0.00 88 1014.4
20260902064503 58 0 0.0 0.0 0.00 0.00 0.00 88 1014.4
20260902064002 58 0 0.0 0.0 0.00 0.00 0.00 88 1014.4
20260902063503 58 0 0.0 0.0 0.00 0.00 0.00 88 1014.4
20260902063024 58 0 0.0 0.0 0.00 0.00 0.00 88 1014.4
20260902062502 58 198 0.0 0.9 0.00 0.00 0.00 88 1014.4
20260902062002 58 198 0.0 0.9 0.00 0.00 0.00 87 1014.4
20260902061502 58 0 0.0 0.0 0.00 0.00 0.00 87 1014.4
20260902061024 58 198 0.0 0.9 0.00 0.00 0.00 87 1014.4
20260902060503 58 198 0.0 1.7 0.00 0.00 0.00 87 1014.4
20260902060003 58 198 0.0 1.7 0.00 0.00 0.00 87 1014.4
20260902055503 58 0 0.0 0.0 0.00 0.00 0.00 87 1014.4
20260902055003 58 200 0.9 2.6 0.00 0.00 0.00 87 1014.4
20260902054524 58 201 0.9 2.6 0.00 0.00 0.00 87 1014.4
20260902054003 58 214 0.9 2.6 0.00 0.00 0.00 86 1014.4
20260902053503 58 222 0.9 2.6 0.00 0.00 0.00 86 1014.4
20260902053003 59 246 0.0 2.6 0.00 0.00 0.00 86 1014.4
20260902052503 59 251 0.0 1.7 0.00 0.00 0.00 86 1014.4
20260902052003 59 251 0.0 1.7 0.00 0.00 0.00 86 1014.4
20260902051503 59 252 0.0 3.5 0.00 0.00 0.00 86 1014.4
20260902051003 59 252 0.0 3.5 0.00 0.00 0.00 85 1014.4
20260902050502 59 250 0.0 0.9 0.00 0.00 0.00 85 1014.4
20260902050004 59 250 0.0 0.9 0.00 0.00 0.00 85 1014.4
20260902045503 59 250 0.0 0.9 0.00 0.00 0.00 85 1014.4
20260902045003 59 250 0.0 0.9 0.00 0.00 0.00 85 1014.4
20260902044503 59 250 0.0 0.9 0.00 0.00 0.00 85 1014.4
20260902044002 59 251 0.0 0.9 0.00 0.00 0.00 85 1014.4
20260902043503 59 254 0.0 1.7 0.00 0.00 0.00 85 1014.4
20260902043024 59 255 0.0 1.7 0.00 0.00 0.00 84 1014.4
20260902042524 59 255 0.0 0.9 0.00 0.00 0.00 85 1014.4
20260902042003 59 255 0.0 0.9 0.00 0.00 0.00 84 1014.4
20260902041524 59 255 0.9 2.6 0.00 0.00 0.00 84 1014.4
20260902041024 59 253 1.7 4.3 0.00 0.00 0.00 84 1014.4
20260902040503 59 249 1.7 4.3 0.00 0.00 0.00 84 1014.4
20260902040003 59 246 1.7 3.5 0.00 0.00 0.00 84 1014.4
20260902035503 59 249 1.7 6.1 0.00 0.00 0.00 83 1014.4
20260902035024 59 249 1.7 6.1 0.00 0.00 0.00 83 1014.4
20260902034502 59 245 1.7 4.3 0.00 0.00 0.00 82 1014.4
20260902034003 60 249 1.7 7.0 0.00 0.00 0.00 82 1014.4
20260902033503 60 259 1.7 7.0 0.00 0.00 0.00 82 1014.4
20260902033003 60 254 1.7 6.1 0.00 0.00 0.00 81 1014.4
20260902032503 60 249 1.7 6.1 0.00 0.00 0.00 81 1014.4
20260902032003 60 249 2.6 6.1 0.00 0.00 0.00 80 1014.4
20260902031503 60 251 2.6 6.1 0.00 0.00 0.00 80 1014.4
20260902031003 60 250 2.6 7.8 0.00 0.00 0.00 79 1014.4
20260902030503 60 253 2.6 7.8 0.00 0.00 0.00 79 1014.4
20260902030003 60 261 2.6 7.0 0.00 0.00 0.00 78 1014.4
20260902025503 60 259 3.5 8.7 0.00 0.00 0.00 78 1014.4
20260902025024 61 256 3.5 8.7 0.00 0.00 0.00 77 1014.4
20260902024503 61 255 3.5 7.8 0.00 0.00 0.00 76 1014.4
20260902024024 61 258 3.5 7.8 0.00 0.00 0.00 75 1014.4
20260902023503 61 266 2.6 7.8 0.00 0.00 0.00 74 1014.4
20260902023003 62 266 1.7 6.1 0.00 0.00 0.00 73 1014.4
20260902022503 62 261 1.7 7.0 0.00 0.00 0.00 72 1014.4
20260902022003 62 259 2.6 10.4 0.00 0.00 0.00 72 1014.4
20260902021503 62 261 3.5 10.4 0.00 0.00 0.00 71 1014.4
20260902021024 62 264 2.6 9.6 0.00 0.00 0.00 71 1014.4
20260902020503 62 256 3.5 8.7 0.00 0.00 0.00 70 1014.4
20260902020003 63 256 3.5 8.7 0.00 0.00 0.00 70 1014.4
20260902015503 63 261 2.6 7.8 0.00 0.00 0.00 69 1014.4
20260902015003 63 250 2.6 8.7 0.00 0.00 0.00 69 1014.4
20260902014503 64 254 3.5 8.7 0.00 0.00 0.00 69 1014.4
20260902014003 64 268 3.5 8.7 0.00 0.00 0.00 68 1014.4
20260902013503 64 262 3.5 8.7 0.00 0.00 0.00 67 1014.4
20260902013003 65 256 3.5 9.6 0.00 0.00 0.00 67 1014.4
20260902012524 65 258 3.5 9.6 0.00 0.00 0.00 66 1014.4
20260902012003 66 266 3.5 8.7 0.00 0.00 0.00 65 1014.4
20260902011503 66 269 2.6 7.8 0.00 0.00 0.00 65 1014.4
20260902011003 66 273 3.5 10.4 0.00 0.00 0.00 65 1014.4
20260902010503 66 271 2.6 10.4 0.00 0.00 0.00 64 1014.4
20260902010003 66 265 2.6 7.8 0.00 0.00 0.00 63 1014.4
20260902005503 67 279 2.6 7.8 0.00 0.00 0.00 63 1014.4
20260902005003 67 290 2.6 9.6 0.00 0.00 0.00 62 1014.4
20260902004503 67 272 2.6 9.6 0.00 0.00 0.00 63 1014.4
20260902004003 67 267 3.5 8.7 0.00 0.00 0.00 63 1014.4
20260902003503 67 261 3.5 7.8 0.00 0.00 0.00 63 1014.4
20260902003003 67 260 4.3 10.4 0.00 0.00 0.00 62 1014.4
20260902002503 68 269 2.6 10.4 0.00 0.00 0.00 60 1014.4
20260902002003 68 289 1.7 9.6 0.00 0.00 0.00 60 1014.4
20260902001503 68 290 2.6 9.6 0.00 0.00 0.00 60 1014.4
20260902001024 68 279 2.6 9.6 0.00 0.00 0.00 59 1014.4
20260902000524 68 273 2.6 10.4 0.00 0.00 0.00 61 1014.4
20260902000003 68 266 3.5 10.4 0.00 0.00 0.00 62 1014.4
20260901235503 68 255 2.6 8.7 0.00 0.00 0.00 62 1014.4
20260901235003 68 265 2.6 7.0 0.00 0.00 0.00 62 1014.4
20260901234524 68 265 3.5 11.3 0.00 0.00 0.00 62 1014.4
20260901234003 68 267 3.5 11.3 0.00 0.00 0.00 61 1014.4
20260901233503 68 267 2.6 9.6 0.00 0.00 0.00 61 1014.4
20260901233003 68 263 3.5 12.2 0.00 0.00 0.00 61 1014.4
20260901232503 68 260 3.5 12.2 0.00 0.00 0.00 58 1014.4
20260901232003 69 271 3.5 9.6 0.00 0.00 0.00 57 1014.4
20260901231503 69 286 2.6 7.8 0.00 0.00 0.00 57 1014.4
20260901231003 69 267 2.6 9.6 0.00 0.00 0.00 56 1014.4
20260901230503 69 260 2.6 11.3 0.00 0.00 0.00 57 1014.4
20260901230003 69 281 2.6 11.3 0.00 0.00 0.00 56 1014.4
20260901225503 70 288 2.6 8.7 0.00 0.00 0.00 55 1014.4
20260901225003 70 278 2.6 9.6 0.00 0.00 0.00 55 1014.4
20260901224505 70 261 2.6 9.6 0.00 0.00 0.00 55 1014.4
20260901224003 70 268 2.6 7.8 0.00 0.00 0.00 55 1014.4
20260901223524 70 297 2.6 7.8 0.00 0.00 0.00 56 1014.4
20260901223003 70 286 2.6 10.4 0.00 0.00 0.00 56 1014.4
20260901222503 70 288 2.6 10.4 0.00 0.00 0.00 56 1014.4
20260901222003 70 279 2.6 11.3 0.00 0.00 0.00 56 1014.4
20260901221503 70 272 2.6 11.3 0.00 0.00 0.00 56 1014.4
20260901221003 70 281 2.6 10.4 0.00 0.00 0.00 57 1014.4
20260901220503 70 269 2.6 10.4 0.00 0.00 0.00 57 1014.4
20260901220003 70 269 2.6 7.0 0.00 0.00 0.00 58 1014.4
20260901215503 70 275 2.6 8.7 0.00 0.00 0.00 58 1014.4
20260901215003 70 268 2.6 9.6 0.00 0.00 0.00 58 1014.4
20260901214503 70 272 3.5 9.6 0.00 0.00 0.00 57 1014.4
20260901214003 70 282 2.6 9.6 0.00 0.00 0.00 58 1014.4
20260901213524 70 309 1.7 7.0 0.00 0.00 0.00 58 1014.4
20260901213003 69 295 2.6 8.7 0.00 0.00 0.00 59 1014.4
20260901212503 69 266 2.6 8.7 0.00 0.00 0.00 59 1014.4
20260901212024 69 263 2.6 10.4 0.00 0.00 0.00 58 1014.4
20260901211503 68 264 2.6 10.4 0.00 0.00 0.00 59 1014.4
20260901211024 68 261 2.6 8.7 0.00 0.00 0.00 59 1014.4
20260901210503 68 256 2.6 8.7 0.00 0.00 0.00 58 1014.4
20260901210003 68 254 2.6 7.0 0.00 0.00 0.00 58 1014.4
20260901205524 68 257 1.7 6.1 0.00 0.00 0.00 58 1014.4
20260901205003 68 260 2.6 7.8 0.00 0.00 0.00 58 1014.4
20260901204503 68 264 2.6 7.8 0.00 0.00 0.00 58 1014.4
20260901204003 68 295 1.7 4.3 0.00 0.00 0.00 58 1014.4
20260901203503 68 260 1.7 4.3 0.00 0.00 0.00 59 1014.4
20260901203003 67 203 2.6 5.2 0.00 0.00 0.00 59 1014.4
20260901202503 67 235 2.6 8.7 0.00 0.00 0.00 59 1014.4
20260901202003 67 257 2.6 8.7 0.00 0.00 0.00 60 1014.4
20260901201503 67 254 1.7 6.1 0.00 0.00 0.00 59 1014.4
20260901201003 67 234 1.7 6.1 0.00 0.00 0.00 61 1014.4
20260901200503 67 246 2.6 6.1 0.00 0.00 0.00 61 1014.4
20260901200003 67 297 2.6 7.0 0.00 0.00 0.00 61 1014.4
20260901195503 66 295 1.7 7.0 0.00 0.00 0.00 63 1014.4
20260901195003 66 256 1.7 5.2 0.00 0.00 0.00 63 1014.4
20260901194503 65 251 1.7 7.0 0.00 0.00 0.00 63 1014.4
20260901194003 65 248 2.6 9.6 0.00 0.00 0.00 63 1014.4
20260901193503 65 267 1.7 9.6 0.00 0.00 0.00 64 1014.4
20260901193003 64 271 2.6 6.1 0.00 0.00 0.00 64 1014.4
20260901192503 64 248 2.6 7.0 0.00 0.00 0.00 65 1014.4
20260901192024 64 244 3.5 7.0 0.00 0.00 0.00 64 1014.4
20260901191503 64 241 3.5 7.0 0.00 0.00 0.00 65 1014.4
20260901191003 64 244 3.5 7.8 0.00 0.00 0.00 66 1014.4
20260901190503 64 261 2.6 7.8 0.00 0.00 0.00 67 1014.4
20260901190003 64 265 2.6 7.8 0.00 0.00 0.00 68 1014.4
20260901185503 64 253 2.6 7.8 0.00 0.00 0.00 67 1014.4
20260901185003 64 258 1.7 7.0 0.00 0.00 0.00 66 1014.4
20260901184503 64 268 1.7 6.1 0.00 0.00 0.00 67 1014.4
20260901184003 64 249 1.7 7.8 0.00 0.00 0.00 67 1014.4
20260901183503 64 243 2.6 7.8 0.00 0.00 0.00 66 1014.4
20260901183003 64 247 2.6 7.0 0.00 0.00 0.00 66 1014.4
20260901182503 64 245 2.6 7.0 0.00 0.00 0.00 66 1014.4
20260901182003 64 238 2.6 7.0 0.00 0.00 0.00 66 1014.4
20260901181503 64 232 2.6 7.8 0.00 0.00 0.00 66 1014.4
20260901181003 63 240 2.6 7.8 0.00 0.00 0.00 67 1014.4
20260901180503 63 250 2.6 8.7 0.00 0.00 0.00 67 1014.4
20260901180003 63 251 3.5 8.7 0.00 0.00 0.00 66 1014.4
20260901175524 63 244 2.6 7.8 0.00 0.00 0.00 66 1014.4
20260901175003 63 247 2.6 7.8 0.00 0.00 0.00 66 1014.4
20260901174503 63 230 3.5 7.8 0.00 0.00 0.00 66 1014.4
20260901174003 63 221 3.5 7.8 0.00 0.00 0.00 67 1014.4
20260901173524 62 235 2.6 7.8 0.00 0.00 0.00 67 1014.4
20260901173003 62 242 2.6 6.1 0.00 0.00 0.00 68 1014.4
20260901172503 62 249 2.6 6.1 0.00 0.00 0.00 69 1014.4
20260901172003 62 250 2.6 6.1 0.00 0.00 0.00 68 1014.4
20260901171503 62 255 2.6 7.0 0.00 0.00 0.00 67 1014.4
20260901171003 62 286 1.7 7.0 0.00 0.00 0.00 67 1014.4
20260901170524 62 307 1.7 7.0 0.00 0.00 0.00 67 1014.4
20260901170003 62 278 2.6 7.0 0.00 0.00 0.00 68 1014.4
20260901165503 61 259 2.6 6.1 0.00 0.00 0.00 70 1014.4
20260901165004 61 253 2.6 7.0 0.00 0.00 0.00 71 1014.4
20260901164504 61 252 2.6 7.8 0.00 0.00 0.00 71 1014.4
20260901164003 61 237 2.6 7.8 0.00 0.00 0.00 71 1014.4
20260901163503 61 225 3.5 7.8 0.00 0.00 0.00 72 1014.4
20260901163003 61 236 3.5 7.8 0.00 0.00 0.00 73 1014.4
20260901162503 60 240 3.5 7.8 0.00 0.00 0.00 73 1014.4
20260901162003 60 232 2.6 7.0 0.00 0.00 0.00 73 1014.4
20260901161503 60 248 2.6 7.0 0.00 0.00 0.00 73 1014.4
20260901161024 60 246 2.6 7.0 0.00 0.00 0.00 74 1014.4
20260901160503 60 238 2.6 7.8 0.00 0.00 0.00 74 1014.4
20260901160003 60 243 2.6 7.8 0.00 0.00 0.00 75 1014.4
20260901155524 60 244 1.7 4.3 0.00 0.00 0.00 76 1014.4
20260901155003 60 239 1.7 5.2 0.00 0.00 0.00 76 1014.4
20260901154524 59 242 2.6 7.8 0.00 0.00 0.00 76 1014.4
20260901154003 59 250 3.5 7.8 0.00 0.00 0.00 76 1014.4
20260901153503 59 251 2.6 7.8 0.00 0.00 0.00 76 1014.4
20260901153003 59 253 2.6 7.0 0.00 0.00 0.00 77 1014.4
20260901152503 59 248 1.7 7.0 0.00 0.00 0.00 78 1014.4
20260901152003 59 224 1.7 7.0 0.00 0.00 0.00 78 1014.4
20260901151503 59 218 1.7 5.2 0.00 0.00 0.00 79 1014.4
20260901151003 58 240 1.7 6.1 0.00 0.00 0.00 79 1014.4
20260901150503 58 247 0.9 6.1 0.00 0.00 0.00 79 1014.4
20260901150003 58 240 0.9 4.3 0.00 0.00 0.00 79 1014.4
20260901145503 58 230 1.7 6.1 0.00 0.00 0.00 79 1014.4
20260901145003 58 219 1.7 6.1 0.00 0.00 0.00 79 1014.4
20260901144503 58 208 1.7 4.3 0.00 0.00 0.00 79 1014.4
20260901144003 58 196 1.7 4.3 0.00 0.00 0.00 79 1014.4
20260901143503 58 195 2.6 5.2 0.00 0.00 0.00 79 1014.4
20260901143003 58 193 2.6 5.2 0.00 0.00 0.00 79 1014.4
20260901142503 58 186 3.5 5.2 0.00 0.00 0.00 79 1014.4
20260901142003 58 188 2.6 7.8 0.00 0.00 0.00 79 1014.4
20260901141503 57 192 2.6 7.8 0.00 0.00 0.00 79 1014.4
20260901141003 57 191 2.6 7.0 0.00 0.00 0.00 79 1014.4
20260901140503 57 196 2.6 5.2 0.00 0.00 0.00 79 1014.4
20260901140024 57 201 1.7 5.2 0.00 0.00 0.00 80 1014.4
20260901135503 57 191 2.6 6.1 0.00 0.00 0.00 80 1014.4
20260901135003 57 188 3.5 7.0 0.00 0.00 0.00 80 1014.4
20260901134524 57 192 2.6 7.0 0.00 0.00 0.00 80 1014.4
20260901134024 57 193 2.6 5.2 0.00 0.00 0.00 80 1014.4
20260901133525 57 192 1.7 6.1 0.00 0.00 0.00 80 1014.4
20260901133003 57 191 1.7 6.1 0.00 0.00 0.00 80 1014.4
20260901132503 57 193 1.7 5.2 0.00 0.00 0.00 80 1014.4
20260901132003 57 180 1.7 5.2 0.00 0.00 0.00 80 1014.4
20260901131503 57 173 1.7 5.2 0.00 0.00 0.00 80 1014.4
20260901131003 57 189 1.7 6.1 0.00 0.00 0.00 80 1014.4
20260901130503 57 188 1.7 6.1 0.00 0.00 0.00 80 1014.4
20260901130024 57 187 1.7 4.3 0.00 0.00 0.00 80 1014.4
20260901125524 57 186 2.6 6.1 0.00 0.00 0.00 80 1014.4
20260901125003 57 189 1.7 5.2 0.00 0.00 0.00 80 1014.4
20260901124504 57 190 1.7 4.3 0.00 0.00 0.00 80 1014.4
20260901124003 57 196 1.7 6.1 0.00 0.00 0.00 80 1014.4
20260901123503 57 203 1.7 6.1 0.00 0.00 0.00 80 1014.4
20260901123003 57 191 1.7 5.2 0.00 0.00 0.00 80 1014.4
20260901122524 57 185 1.7 6.1 0.00 0.00 0.00 80 1014.4
20260901122003 57 193 1.7 6.1 0.00 0.00 0.00 80 1014.4
20260901121524 57 194 1.7 5.2 0.00 0.00 0.00 80 1014.4
20260901121003 57 189 1.7 4.3 0.00 0.00 0.00 80 1014.4
20260901120503 57 185 1.7 4.3 0.00 0.00 0.00 80 1014.4
20260901120003 57 200 1.7 4.3 0.00 0.00 0.00 80 1014.4
20260901115503 57 203 1.7 4.3 0.00 0.00 0.00 80 1014.4
20260901115024 57 206 1.7 4.3 0.00 0.00 0.00 80 1014.4
20260901114524 57 203 1.7 6.1 0.00 0.00 0.00 80 1014.4
20260901114001 57 200 1.7 6.1 0.00 0.00 0.00 80 1014.4
20260901113502 57 199 1.7 5.2 0.00 0.00 0.00 80 1014.4
20260901113002 57 199 0.9 5.2 0.00 0.00 0.00 80 1014.4
20260901112523 57 206 1.7 5.2 0.00 0.00 0.00 81 1014.4
20260901112002 57 216 2.6 7.0 0.00 0.00 0.00 80 1014.4
20260901111502 57 213 1.7 7.0 0.00 0.00 0.00 81 1014.4
20260901111002 57 215 1.7 5.2 0.00 0.00 0.00 81 1014.4
20260901110501 57 235 1.7 4.3 0.00 0.00 0.00 80 1014.4
20260901110002 57 240 1.7 4.3 0.00 0.00 0.00 80 1014.4
20260901105502 57 240 1.7 5.2 0.00 0.00 0.00 80 1014.4
20260901105001 57 216 1.7 5.2 0.00 0.00 0.00 80 1014.4
20260901104502 57 207 1.7 4.3 0.00 0.00 0.00 80 1014.4
20260901104001 57 203 1.7 4.3 0.00 0.00 0.00 80 1014.4
20260901103501 57 203 0.9 3.5 0.00 0.00 0.00 80 1014.4
20260901103002 57 221 1.7 7.0 0.00 0.00 0.00 80 1014.4
20260901102501 57 230 1.7 7.0 0.00 0.00 0.00 79 1014.4